sat.trackr.live / text

‹ back to catalog

STARLINK-4021

NORAD 53149 · 2022-083T

PAYLOAD ACTIVE UNKNOWN

§ Identity

Operator
Country
US
Launch date
2022-07-17
Launch site
AFETR
Launch vehicle
Mass (kg)
RCS (m²)

Purposes: comms

External: N2YO · Heavens-Above · Gunter

§ Orbital elements

Epoch: 2026-05-24T20:01:18.889824Z

Period
95.44 min
Inclination
53.2158°
Eccentricity
0.0001015
Mean motion
15.08842038 rev/d
Perigee alt
539.0 km
Apogee alt
540.4 km
Semi-major
6,917.9 km
B*
4.4749e-5
RAAN
182.4958°
Arg perigee
78.7532°
Mean anomaly
281.3574°
Rev number
21,285

§ Raw data

STARLINK-40211 53149U 22083T   26144.83424641  .00000425  00000+0  44749-4 0  99982 53149  53.2158 182.4958 0001015  78.7532 281.3574 15.08842038212851

JSON: /api/v1/satellites/53149 · /tle

For live sub-satellite position, see the globe view (requires WebGL).

§ Visibility from observer

Set your observer location to see the next 7 days of passes ≥ 10°. The values pass through the URL so the page stays shareable.

No JS? Fill the form by hand. The geolocation button needs JavaScript.